User: anonymous   Login
Location: Unspecified
(0.0000°N, 0.0000°E)
Time: 20:04:57
(UTC+00:00)
Language:

TBA - TO BE ASSIGNED - Orbit

View from above orbital plane
View from above orbital plane
View from above satellite
View from above satellite

Ground track
Ground track

The orbit is defined by the following mean orbital elements,

1 68897U          26145.26768368 +.00000000 +00000-0 +10777-2 0 00009
2 68897  97.2851 340.9564 0001106  85.5288 274.6089 15.49203928    06
Epoch (UTC): 25 May 2026 06:25:27
Eccentricity: 0.0001106
inclination: 97.2851°
perigee height: 418 km
apogee height: 420 km
right ascension of ascending node: 340.9564°
argument of perigee: 85.5288°
revolutions per day: 15.49203928
mean anomaly at epoch: 274.6089°

The dashed part of the orbit path shows where the satellite is in the earth's shadow,  

DLR